User: anonymous   Login
Location: Austin, TX
(30.3000°N, 97.7500°W)
Time: 14:35:54
(UTC-06:00)
Language:

Cosmos 2082 Rocket - Orbit

View from above orbital plane
View from above orbital plane
View from above satellite
View from above satellite

Ground track
Ground track

The orbit data is extracted from the following two-line orbital elements,

1 20625U 90046B   17058.18048929 -.00000248  00000-0 -10429-3 0  9991
2 20625  71.0010  20.0174 0016911 274.0508  85.8682 14.14614121382278
Epoch (UTC): 27 February 2017 04:19:54
Eccentricity: 0.0016911
inclination: 71.0010°
perigee height: 831 km
apogee height: 856 km
right ascension of ascending node: 20.0174°
argument of perigee: 274.0508°
revolutions per day: 14.14614121
mean anomaly at epoch: 85.8682°
orbit number at epoch: 38227

The dashed part of the orbit path shows where the satellite is in the earth's shadow,  

DLR